This is the latest recevied weather packets stored in our database for station/object KB9ZGZ. If no packets are shown the sender has not sent any weather packets the latest 10 day(s).
| Time | Temp. | Humidity | Pressure | Rain* | Wind** | Luminosity | Snow |
|---|---|---|---|---|---|---|---|
| 1778099405 | 15.56° C | 48% | 1011.5 hPa | 0 mm | - | - | - |
| 1778098504 | 16.67° C | 49% | 1011.6 hPa | 0 mm | - | - | - |
| 1778097659 | 16.11° C | 49% | 1011.5 hPa | 0 mm | - | - | - |
| 1778096762 | 16.11° C | 49% | 1011.6 hPa | 0 mm | - | - | - |
| 1778095856 | 16.11° C | 47% | 1011.5 hPa | 0 mm | - | - | - |
| 1778094956 | 15.56° C | 51% | 1011.5 hPa | 0 mm | - | - | - |
| 1778094052 | 16.11° C | 53% | 1011.6 hPa | 0 mm | - | - | - |
| 1778093152 | 15.56° C | 49% | 1011.6 hPa | 0 mm | - | - | - |
| 1778092255 | 15° C | 51% | 1011.5 hPa | 0 mm | - | - | - |
| 1778091370 | 15° C | 50% | 1011.6 hPa | 0 mm | - | - | - |
| 1778090441 | 15° C | 57% | 1011.5 hPa | 0 mm | - | - | - |
| 1778089541 | 15° C | 56% | 1011.5 hPa | 0 mm | - | - | - |
| 1778088653 | 14.44° C | 56% | 1011.5 hPa | 0 mm | - | - | - |
| 1778087733 | 13.89° C | 53% | 1011.6 hPa | 0 mm | - | - | - |
| 1778086827 | 13.89° C | 57% | 1011.5 hPa | 0 mm | - | - | - |
| 1778085934 | 13.33° C | 56% | 1011.6 hPa | 0 mm | - | - | - |
| 1778085021 | 12.78° C | 67% | 1011.6 hPa | 0 mm | - | - | - |
| 1778084118 | 12.22° C | 73% | 1011.2 hPa | 0 mm | - | - | - |
| 1778083211 | 11.67° C | 76% | 1011.1 hPa | 0 mm | - | - | - |
| 1778082309 | 11.11° C | 79% | 1011 hPa | 0 mm | - | - | - |
| 1778081418 | 10.56° C | 82% | 1010.6 hPa | 0 mm | - | - | - |
| 1778080508 | 10.56° C | 87% | 1010.1 hPa | 0 mm | - | - | - |
| 1778079605 | 10° C | 90% | 1010.1 hPa | 0 mm | - | - | - |
| 1778078711 | 9.44° C | 93% | 1010 hPa | 0 mm | - | - | - |
| 1778077804 | 8.89° C | 95% | 1010 hPa | 0 mm | - | - | - |
* Rain since midnight (hover to see other rain measurements)
** Current wind speed in m/s (hover to see current wind gust speed)